Time,TemperatureF,DewpointF,PressureIn,WindDirection,WindDirectionDegrees,WindSpeedMPH,WindSpeedGustMPH,Humidity,HourlyPrecipIn,Conditions,Clouds,dailyrainin,SoftwareType,DateUTC
2013-04-21 00:01:00,38.3,20.7,30.28,South,180,2.0,9.2,49,0.00,,,0.00,WUHU216HW,2013-04-21 04:01:00,
2013-04-21 00:02:00,38.3,20.7,30.28,WNW,293,2.9,9.2,49,0.00,,,0.00,WUHU216HW,2013-04-21 04:02:00,
2013-04-21 00:07:00,38.0,20.5,30.29,SW,225,3.8,7.6,49,0.00,,,0.00,WUHU216HW,2013-04-21 04:07:00,
2013-04-21 00:12:00,37.8,20.3,30.29,NW,315,3.6,4.9,49,0.00,,,0.00,WUHU216HW,2013-04-21 04:12:00,
2013-04-21 00:17:00,37.6,20.6,30.30,WNW,293,2.5,3.8,50,0.00,,,0.00,WUHU216HW,2013-04-21 04:17:00,
2013-04-21 00:22:00,37.2,20.2,30.30,NW,315,4.0,6.3,50,0.00,,,0.00,WUHU216HW,2013-04-21 04:22:00,
2013-04-21 00:27:00,37.1,20.6,30.31,West,270,3.4,8.5,51,0.00,,,0.00,WUHU216HW,2013-04-21 04:27:00,
2013-04-21 00:33:00,36.7,20.2,30.31,NW,315,3.8,8.5,51,0.00,,,0.00,WUHU216HW,2013-04-21 04:33:00,
2013-04-21 00:38:00,36.5,20.0,30.31,NW,315,4.0,8.5,51,0.00,,,0.00,WUHU216HW,2013-04-21 04:38:00,
2013-04-21 00:43:00,36.2,19.8,30.31,West,270,4.7,8.5,51,0.00,,,0.00,WUHU216HW,2013-04-21 04:43:00,
2013-04-21 00:48:00,36.0,19.6,30.31,NNW,338,2.5,7.2,51,0.00,,,0.00,WUHU216HW,2013-04-21 04:48:00,
2013-04-21 00:53:00,35.8,19.9,30.31,NNW,338,4.0,4.0,52,0.00,,,0.00,WUHU216HW,2013-04-21 04:53:00,
2013-04-21 00:58:00,35.6,19.7,30.31,WNW,293,1.8,4.0,52,0.00,,,0.00,WUHU216HW,2013-04-21 04:58:00,
2013-04-21 01:03:00,35.4,19.5,30.31,North,0,1.6,4.0,52,0.00,,,0.00,WUHU216HW,2013-04-21 05:03:00,
2013-04-21 01:08:00,35.3,19.8,30.31,NW,315,4.5,4.5,53,0.00,,,0.00,WUHU216HW,2013-04-21 05:08:00,
2013-04-21 01:13:00,34.9,19.5,30.32,WNW,293,1.8,4.5,53,0.00,,,0.00,WUHU216HW,2013-04-21 05:13:00,
2013-04-21 01:19:00,34.7,19.3,30.32,NNW,338,2.2,5.8,53,0.00,,,0.00,WUHU216HW,2013-04-21 05:19:00,
2013-04-21 01:24:00,34.5,19.1,30.32,WSW,248,2.5,5.8,53,0.00,,,0.00,WUHU216HW,2013-04-21 05:24:00,
2013-04-21 01:29:00,34.4,19.0,30.32,West,270,2.9,4.5,53,0.00,,,0.00,WUHU216HW,2013-04-21 05:29:00,
2013-04-21 01:34:00,34.2,18.8,30.32,WNW,293,1.3,5.1,53,0.00,,,0.00,WUHU216HW,2013-04-21 05:34:00,
2013-04-21 01:39:00,34.2,19.3,30.32,ENE,68,0.9,5.1,54,0.00,,,0.00,WUHU216HW,2013-04-21 05:39:00,
2013-04-21 01:44:00,34.0,19.1,30.33,WSW,248,2.5,4.9,54,0.00,,,0.00,WUHU216HW,2013-04-21 05:44:00,
2013-04-21 01:49:00,33.8,18.9,30.33,NW,315,2.2,4.9,54,0.00,,,0.00,WUHU216HW,2013-04-21 05:49:00,
2013-04-21 01:54:00,33.6,18.7,30.33,West,270,0.9,4.7,54,0.00,,,0.00,WUHU216HW,2013-04-21 05:54:00,
2013-04-21 01:59:00,33.6,18.7,30.33,NW,315,3.1,4.7,54,0.00,,,0.00,WUHU216HW,2013-04-21 05:59:00,
2013-04-21 02:04:00,33.5,18.6,30.33,WNW,293,2.9,3.4,54,0.00,,,0.00,WUHU216HW,2013-04-21 06:04:00,
2013-04-21 02:10:00,33.3,18.4,30.33,West,270,2.5,4.9,54,0.00,,,0.00,WUHU216HW,2013-04-21 06:10:00,
2013-04-21 02:15:00,33.3,18.4,30.33,WNW,293,2.5,6.3,54,0.00,,,0.00,WUHU216HW,2013-04-21 06:15:00,
2013-04-21 02:20:00,33.1,18.2,30.33,SSE,158,2.0,6.3,54,0.00,,,0.00,WUHU216HW,2013-04-21 06:20:00,
2013-04-21 02:25:00,32.9,18.1,30.34,NW,315,2.2,6.9,54,0.00,,,0.00,WUHU216HW,2013-04-21 06:25:00,
2013-04-21 02:30:00,32.9,18.1,30.34,West,270,2.5,8.1,54,0.00,,,0.00,WUHU216HW,2013-04-21 06:30:00,
2013-04-21 02:35:00,32.7,17.9,30.34,WSW,248,1.8,8.1,54,0.00,,,0.00,WUHU216HW,2013-04-21 06:35:00,
2013-04-21 02:40:00,32.6,17.8,30.34,NNW,338,2.5,9.4,54,0.00,,,0.00,WUHU216HW,2013-04-21 06:40:00,
2013-04-21 02:45:00,32.6,17.8,30.34,NNE,23,2.5,9.4,54,0.00,,,0.00,WUHU216HW,2013-04-21 06:45:00,
2013-04-21 02:50:00,32.6,17.8,30.34,NW,315,2.9,5.8,54,0.00,,,0.00,WUHU216HW,2013-04-21 06:50:00,
2013-04-21 02:55:00,32.4,17.6,30.34,WNW,293,3.4,5.8,54,0.00,,,0.00,WUHU216HW,2013-04-21 06:55:00,
2013-04-21 03:01:00,32.2,17.4,30.34,WNW,293,2.5,4.9,54,0.00,,,0.00,WUHU216HW,2013-04-21 07:01:00,
2013-04-21 03:06:00,32.2,17.8,30.35,WNW,293,2.5,4.7,55,0.00,,,0.00,WUHU216HW,2013-04-21 07:06:00,
2013-04-21 03:11:00,32.2,17.8,30.35,NNW,338,3.4,5.4,55,0.00,,,0.00,WUHU216HW,2013-04-21 07:11:00,
2013-04-21 03:16:00,32.0,17.7,30.35,SSW,203,1.8,5.4,55,0.00,,,0.00,WUHU216HW,2013-04-21 07:16:00,
2013-04-21 03:21:00,32.0,17.7,30.35,WNW,293,3.6,4.0,55,0.00,,,0.00,WUHU216HW,2013-04-21 07:21:00,
2013-04-21 03:26:00,31.8,17.9,30.35,WNW,293,3.1,6.9,56,0.00,,,0.00,WUHU216HW,2013-04-21 07:26:00,
2013-04-21 03:31:00,31.8,17.9,30.35,WNW,293,2.9,6.9,56,0.00,,,0.00,WUHU216HW,2013-04-21 07:31:00,
2013-04-21 03:36:00,31.7,17.8,30.36,NW,315,3.1,5.1,56,0.00,,,0.00,WUHU216HW,2013-04-21 07:36:00,
2013-04-21 03:41:00,31.5,17.6,30.36,NW,315,4.0,5.1,56,0.00,,,0.00,WUHU216HW,2013-04-21 07:41:00,
2013-04-21 03:46:00,31.5,17.6,30.36,WNW,293,2.9,5.1,56,0.00,,,0.00,WUHU216HW,2013-04-21 07:46:00,
2013-04-21 03:52:00,31.3,17.4,30.36,WNW,293,2.7,5.4,56,0.00,,,0.00,WUHU216HW,2013-04-21 07:52:00,
2013-04-21 03:57:00,31.3,17.4,30.36,West,270,5.1,5.4,56,0.00,,,0.00,WUHU216HW,2013-04-21 07:57:00,
2013-04-21 04:02:00,31.3,17.4,30.36,NW,315,1.6,5.1,56,0.00,,,0.00,WUHU216HW,2013-04-21 08:02:00,
2013-04-21 04:07:00,31.1,17.2,30.36,WNW,293,1.1,5.1,56,0.00,,,0.00,WUHU216HW,2013-04-21 08:07:00,
2013-04-21 04:12:00,31.1,17.2,30.37,WNW,293,4.0,4.0,56,0.00,,,0.00,WUHU216HW,2013-04-21 08:12:00,
2013-04-21 04:17:00,30.9,17.0,30.36,NW,315,4.7,5.4,56,0.00,,,0.00,WUHU216HW,2013-04-21 08:17:00,
2013-04-21 04:22:00,30.8,17.4,30.36,NW,315,2.5,5.4,57,0.00,,,0.00,WUHU216HW,2013-04-21 08:22:00,
2013-04-21 04:27:00,30.8,17.4,30.37,WNW,293,4.5,6.3,57,0.00,,,0.00,WUHU216HW,2013-04-21 08:27:00,
2013-04-21 04:32:00,30.8,17.4,30.37,WNW,293,2.5,6.3,57,0.00,,,0.00,WUHU216HW,2013-04-21 08:32:00,
2013-04-21 04:38:00,30.8,17.8,30.37,West,270,2.2,6.7,58,0.00,,,0.00,WUHU216HW,2013-04-21 08:38:00,
2013-04-21 04:43:00,30.8,17.8,30.37,West,270,0.9,6.7,58,0.00,,,0.00,WUHU216HW,2013-04-21 08:43:00,
2013-04-21 04:48:00,30.6,18.0,30.37,West,270,8.5,8.5,59,0.00,,,0.00,WUHU216HW,2013-04-21 08:48:00,
2013-04-21 04:53:00,30.6,17.6,30.38,NW,315,3.4,8.5,58,0.00,,,0.00,WUHU216HW,2013-04-21 08:53:00,
2013-04-21 04:58:00,30.4,17.8,30.38,WSW,248,1.8,6.3,59,0.00,,,0.00,WUHU216HW,2013-04-21 08:58:00,
2013-04-21 05:03:00,30.4,17.8,30.38,WNW,293,4.0,5.4,59,0.00,,,0.00,WUHU216HW,2013-04-21 09:03:00,
2013-04-21 05:08:00,30.2,17.6,30.38,NE,45,2.0,5.4,59,0.00,,,0.00,WUHU216HW,2013-04-21 09:08:00,
2013-04-21 05:13:00,30.2,17.6,30.39,WNW,293,2.7,5.1,59,0.00,,,0.00,WUHU216HW,2013-04-21 09:13:00,
2013-04-21 05:19:00,30.0,17.8,30.39,West,270,2.0,5.1,60,0.00,,,0.00,WUHU216HW,2013-04-21 09:19:00,
2013-04-21 05:24:00,30.0,17.8,30.39,WNW,293,2.2,5.4,60,0.00,,,0.00,WUHU216HW,2013-04-21 09:24:00,
2013-04-21 05:29:00,30.0,17.8,30.40,WNW,293,1.8,5.4,60,0.00,,,0.00,WUHU216HW,2013-04-21 09:29:00,
2013-04-21 05:34:00,30.0,17.8,30.40,West,270,3.1,3.4,60,0.00,,,0.00,WUHU216HW,2013-04-21 09:34:00,
2013-04-21 05:39:00,30.0,17.8,30.40,West,270,1.6,5.4,60,0.00,,,0.00,WUHU216HW,2013-04-21 09:39:00,
2013-04-21 05:44:00,29.9,17.7,30.40,West,270,2.2,5.4,60,0.00,,,0.00,WUHU216HW,2013-04-21 09:44:00,
2013-04-21 05:49:00,29.7,17.9,30.40,WNW,293,2.9,6.3,61,0.00,,,0.00,WUHU216HW,2013-04-21 09:49:00,
2013-04-21 05:54:00,29.7,17.9,30.41,WNW,293,3.4,6.3,61,0.00,,,0.00,WUHU216HW,2013-04-21 09:54:00,
2013-04-21 06:00:00,29.5,17.7,30.41,WNW,293,1.3,5.4,61,0.00,,,0.00,WUHU216HW,2013-04-21 10:00:00,
2013-04-21 06:05:00,29.5,17.7,30.41,WNW,293,2.2,5.4,61,0.00,,,0.00,WUHU216HW,2013-04-21 10:05:00,
2013-04-21 06:10:00,29.5,17.7,30.41,NW,315,1.6,4.0,61,0.00,,,0.00,WUHU216HW,2013-04-21 10:10:00,
2013-04-21 06:15:00,29.5,17.7,30.42,NNW,338,2.0,4.3,61,0.00,,,0.00,WUHU216HW,2013-04-21 10:15:00,
2013-04-21 06:20:00,29.3,17.9,30.42,West,270,3.4,5.4,62,0.00,,,0.00,WUHU216HW,2013-04-21 10:20:00,
2013-04-21 06:25:00,29.3,17.6,30.42,NNW,338,1.6,5.4,61,0.00,,,0.00,WUHU216HW,2013-04-21 10:25:00,
2013-04-21 06:30:00,29.3,17.6,30.43,NW,315,3.4,3.4,61,0.00,,,0.00,WUHU216HW,2013-04-21 10:30:00,
2013-04-21 06:35:00,29.3,17.9,30.43,West,270,2.7,3.4,62,0.00,,,0.00,WUHU216HW,2013-04-21 10:35:00,
2013-04-21 06:40:00,29.3,17.9,30.44,WSW,248,1.3,4.0,62,0.00,,,0.00,WUHU216HW,2013-04-21 10:40:00,
2013-04-21 06:45:00,29.3,17.9,30.44,North,0,1.3,4.0,62,0.00,,,0.00,WUHU216HW,2013-04-21 10:45:00,
2013-04-21 06:51:00,29.3,17.9,30.44,SW,225,0.9,4.0,62,0.00,,,0.00,WUHU216HW,2013-04-21 10:51:00,
2013-04-21 06:56:00,29.5,18.1,30.44,WNW,293,2.5,4.0,62,0.00,,,0.00,WUHU216HW,2013-04-21 10:56:00,
2013-04-21 07:01:00,29.5,18.1,30.45,WNW,293,1.8,5.6,62,0.00,,,0.00,WUHU216HW,2013-04-21 11:01:00,
2013-04-21 07:06:00,29.5,18.1,30.45,WNW,293,3.1,5.6,62,0.00,,,0.00,WUHU216HW,2013-04-21 11:06:00,
2013-04-21 07:11:00,29.7,18.3,30.45,West,270,4.7,4.7,62,0.00,,,0.00,WUHU216HW,2013-04-21 11:11:00,
2013-04-21 07:16:00,29.7,18.7,30.46,West,270,3.6,7.2,63,0.00,,,0.00,WUHU216HW,2013-04-21 11:16:00,
2013-04-21 07:21:00,29.9,18.9,30.46,WNW,293,1.1,7.2,63,0.00,,,0.00,WUHU216HW,2013-04-21 11:21:00,
2013-04-21 07:26:00,29.9,18.9,30.46,SW,225,1.6,6.3,63,0.00,,,0.00,WUHU216HW,2013-04-21 11:26:00,
2013-04-21 07:32:00,30.0,19.0,30.46,NW,315,1.8,6.3,63,0.00,,,0.00,WUHU216HW,2013-04-21 11:32:00,
2013-04-21 07:37:00,30.0,19.0,30.46,West,270,2.2,6.5,63,0.00,,,0.00,WUHU216HW,2013-04-21 11:37:00,
2013-04-21 07:42:00,30.2,19.2,30.47,NW,315,1.1,6.5,63,0.00,,,0.00,WUHU216HW,2013-04-21 11:42:00,
2013-04-21 07:47:00,30.4,19.4,30.47,WNW,293,2.5,5.4,63,0.00,,,0.00,WUHU216HW,2013-04-21 11:47:00,
2013-04-21 07:52:00,30.6,19.6,30.47,West,270,4.5,5.1,63,0.00,,,0.00,WUHU216HW,2013-04-21 11:52:00,
2013-04-21 07:57:00,30.8,19.7,30.48,WNW,293,2.7,4.7,63,0.00,,,0.00,WUHU216HW,2013-04-21 11:57:00,
2013-04-21 08:02:00,30.8,19.7,30.48,NNE,23,4.5,5.4,63,0.00,,,0.00,WUHU216HW,2013-04-21 12:02:00,
2013-04-21 08:07:00,30.9,19.8,30.48,West,270,2.5,5.6,63,0.00,,,0.00,WUHU216HW,2013-04-21 12:07:00,
2013-04-21 08:12:00,31.1,20.0,30.48,WNW,293,2.5,5.6,63,0.00,,,0.00,WUHU216HW,2013-04-21 12:12:00,
2013-04-21 08:17:00,31.3,19.8,30.49,West,270,5.6,5.6,62,0.00,,,0.00,WUHU216HW,2013-04-21 12:17:00,
2013-04-21 08:23:00,31.5,20.0,30.49,NW,315,1.1,5.6,62,0.00,,,0.00,WUHU216HW,2013-04-21 12:23:00,
2013-04-21 08:28:00,31.7,20.2,30.49,NNW,338,1.8,5.6,62,0.00,,,0.00,WUHU216HW,2013-04-21 12:28:00,
2013-04-21 08:33:00,31.8,20.3,30.49,NNW,338,4.3,8.1,62,0.00,,,0.00,WUHU216HW,2013-04-21 12:33:00,
2013-04-21 08:38:00,31.8,20.3,30.49,West,270,5.8,8.1,62,0.00,,,0.00,WUHU216HW,2013-04-21 12:38:00,
2013-04-21 08:43:00,31.8,20.3,30.49,WNW,293,5.4,7.8,62,0.00,,,0.00,WUHU216HW,2013-04-21 12:43:00,
2013-04-21 08:48:00,32.0,20.5,30.49,NNW,338,6.0,6.9,62,0.00,,,0.00,WUHU216HW,2013-04-21 12:48:00,
2013-04-21 08:53:00,32.0,20.5,30.49,NNW,338,2.5,6.9,62,0.00,,,0.00,WUHU216HW,2013-04-21 12:53:00,
2013-04-21 08:58:00,32.2,20.7,30.49,North,0,3.6,6.5,62,0.00,,,0.00,WUHU216HW,2013-04-21 12:58:00,
2013-04-21 09:03:00,32.6,21.1,30.49,WNW,293,2.0,4.5,62,0.00,,,0.00,WUHU216HW,2013-04-21 13:03:00,
2013-04-21 09:08:00,32.9,21.4,30.49,North,0,5.6,7.2,62,0.00,,,0.00,WUHU216HW,2013-04-21 13:08:00,
2013-04-21 09:14:00,32.9,21.0,30.50,NNW,338,6.3,7.6,61,0.00,,,0.00,WUHU216HW,2013-04-21 13:14:00,
2013-04-21 09:19:00,32.9,21.0,30.50,NW,315,2.2,7.6,61,0.00,,,0.00,WUHU216HW,2013-04-21 13:19:00,
2013-04-21 09:24:00,33.3,21.3,30.50,NW,315,3.4,6.3,61,0.00,,,0.00,WUHU216HW,2013-04-21 13:24:00,
2013-04-21 09:29:00,33.6,21.6,30.50,WNW,293,3.1,4.7,61,0.00,,,0.00,WUHU216HW,2013-04-21 13:29:00,
2013-04-21 09:34:00,33.6,21.2,30.50,NNW,338,2.5,4.7,60,0.00,,,0.00,WUHU216HW,2013-04-21 13:34:00,
2013-04-21 09:39:00,34.0,21.6,30.50,NNW,338,3.8,6.7,60,0.00,,,0.00,WUHU216HW,2013-04-21 13:39:00,
2013-04-21 09:44:00,34.0,21.6,30.51,NNW,338,1.8,6.7,60,0.00,,,0.00,WUHU216HW,2013-04-21 13:44:00,
2013-04-21 09:49:00,34.4,22.0,30.51,West,270,1.1,5.4,60,0.00,,,0.00,WUHU216HW,2013-04-21 13:49:00,
2013-04-21 09:55:00,34.5,22.1,30.51,NW,315,4.0,4.7,60,0.00,,,0.00,WUHU216HW,2013-04-21 13:55:00,
2013-04-21 10:00:00,34.7,22.3,30.51,NNE,23,1.8,5.4,60,0.00,,,0.00,WUHU216HW,2013-04-21 14:00:00,
2013-04-21 10:05:00,34.5,21.7,30.51,NNE,23,4.9,6.9,59,0.00,,,0.00,WUHU216HW,2013-04-21 14:05:00,
2013-04-21 10:10:00,34.7,21.9,30.51,SE,135,2.9,6.9,59,0.00,,,0.00,WUHU216HW,2013-04-21 14:10:00,
2013-04-21 10:15:00,34.7,21.9,30.51,North,0,2.7,6.9,59,0.00,,,0.00,WUHU216HW,2013-04-21 14:15:00,
2013-04-21 10:20:00,35.1,21.8,30.52,NNE,23,5.6,6.3,58,0.00,,,0.00,WUHU216HW,2013-04-21 14:20:00,
2013-04-21 10:25:00,35.3,22.0,30.52,North,0,2.5,7.6,58,0.00,,,0.00,WUHU216HW,2013-04-21 14:25:00,
2013-04-21 10:30:00,35.4,21.7,30.52,West,270,3.1,7.6,57,0.00,,,0.00,WUHU216HW,2013-04-21 14:30:00,
2013-04-21 10:35:00,36.0,22.3,30.52,NW,315,1.8,5.4,57,0.00,,,0.00,WUHU216HW,2013-04-21 14:35:00,
2013-04-21 10:41:00,36.3,22.1,30.52,West,270,2.5,3.8,56,0.00,,,0.00,WUHU216HW,2013-04-21 14:41:00,
2013-04-21 10:46:00,36.5,22.3,30.52,East,90,1.1,5.4,56,0.00,,,0.00,WUHU216HW,2013-04-21 14:46:00,
2013-04-21 10:51:00,36.5,22.3,30.52,NNW,338,3.4,5.4,56,0.00,,,0.00,WUHU216HW,2013-04-21 14:51:00,
2013-04-21 10:56:00,36.9,22.2,30.52,West,270,3.6,4.0,55,0.00,,,0.00,WUHU216HW,2013-04-21 14:56:00,
2013-04-21 11:01:00,37.2,22.5,30.52,WNW,293,4.7,4.7,55,0.00,,,0.00,WUHU216HW,2013-04-21 15:01:00,
2013-04-21 11:06:00,37.8,22.6,30.52,West,270,1.8,5.8,54,0.00,,,0.00,WUHU216HW,2013-04-21 15:06:00,
2013-04-21 11:11:00,37.8,22.6,30.52,NNE,23,2.7,5.8,54,0.00,,,0.00,WUHU216HW,2013-04-21 15:11:00,
2013-04-21 11:16:00,37.8,22.2,30.52,NNW,338,2.9,6.0,53,0.00,,,0.00,WUHU216HW,2013-04-21 15:16:00,
2013-04-21 11:21:00,38.0,22.4,30.52,North,0,2.0,6.0,53,0.00,,,0.00,WUHU216HW,2013-04-21 15:21:00,
2013-04-21 11:27:00,38.0,22.4,30.52,SSE,158,3.4,5.4,53,0.00,,,0.00,WUHU216HW,2013-04-21 15:27:00,
2013-04-21 11:32:00,38.3,22.6,30.52,NW,315,1.3,5.4,53,0.00,,,0.00,WUHU216HW,2013-04-21 15:32:00,
2013-04-21 11:37:00,38.5,22.8,30.52,NW,315,4.0,5.4,53,0.00,,,0.00,WUHU216HW,2013-04-21 15:37:00,
2013-04-21 11:42:00,38.7,22.6,30.52,ENE,68,1.8,4.9,52,0.00,,,0.00,WUHU216HW,2013-04-21 15:42:00,
2013-04-21 11:47:00,38.7,22.6,30.52,NW,315,1.6,4.0,52,0.00,,,0.00,WUHU216HW,2013-04-21 15:47:00,
2013-04-21 11:52:00,38.9,22.7,30.52,NW,315,2.0,4.0,52,0.00,,,0.00,WUHU216HW,2013-04-21 15:52:00,
2013-04-21 11:57:00,39.0,22.4,30.52,WNW,293,1.6,6.3,51,0.00,,,0.00,WUHU216HW,2013-04-21 15:57:00,
2013-04-21 12:02:00,39.2,22.5,30.51,West,270,0.4,6.3,51,0.00,,,0.00,WUHU216HW,2013-04-21 16:02:00,
2013-04-21 12:08:00,39.4,22.7,30.51,North,0,3.4,4.0,51,0.00,,,0.00,WUHU216HW,2013-04-21 16:08:00,
2013-04-21 12:13:00,39.8,22.6,30.52,SE,135,4.5,5.8,50,0.00,,,0.00,WUHU216HW,2013-04-21 16:13:00,
2013-04-21 12:18:00,39.9,22.7,30.51,NW,315,4.3,5.8,50,0.00,,,0.00,WUHU216HW,2013-04-21 16:18:00,
2013-04-21 12:23:00,40.1,22.9,30.52,West,270,2.0,4.7,50,0.00,,,0.00,WUHU216HW,2013-04-21 16:23:00,
2013-04-21 12:28:00,40.3,22.6,30.51,NNE,23,0.9,4.7,49,0.00,,,0.00,WUHU216HW,2013-04-21 16:28:00,
2013-04-21 12:33:00,40.5,23.3,30.51,NNW,338,0.9,4.7,50,0.00,,,0.00,WUHU216HW,2013-04-21 16:33:00,
2013-04-21 12:38:00,40.7,23.4,30.51,NNW,338,4.0,4.7,50,0.00,,,0.00,WUHU216HW,2013-04-21 16:38:00,
2013-04-21 12:43:00,41.2,23.9,30.51,WNW,293,1.8,4.7,50,0.00,,,0.00,WUHU216HW,2013-04-21 16:43:00,
2013-04-21 12:48:00,41.6,24.3,30.51,NNW,338,1.3,5.1,50,0.00,,,0.00,WUHU216HW,2013-04-21 16:48:00,
2013-04-21 12:54:00,41.6,23.8,30.51,West,270,2.2,5.1,49,0.00,,,0.00,WUHU216HW,2013-04-21 16:54:00,
2013-04-21 12:59:00,41.7,23.9,30.51,ENE,68,2.0,5.4,49,0.00,,,0.00,WUHU216HW,2013-04-21 16:59:00,
2013-04-21 13:04:00,41.7,23.4,30.51,North,0,4.0,5.8,48,0.00,,,0.00,WUHU216HW,2013-04-21 17:04:00,
2013-04-21 13:09:00,42.1,23.7,30.51,WSW,248,1.8,5.8,48,0.00,,,0.00,WUHU216HW,2013-04-21 17:09:00,
2013-04-21 13:14:00,42.6,23.7,30.51,NW,315,3.1,4.7,47,0.00,,,0.00,WUHU216HW,2013-04-21 17:14:00,
2013-04-21 13:19:00,42.6,23.7,30.51,NNW,338,0.9,4.5,47,0.00,,,0.00,WUHU216HW,2013-04-21 17:19:00,
2013-04-21 13:24:00,42.6,23.7,30.51,SSW,203,1.1,4.5,47,0.00,,,0.00,WUHU216HW,2013-04-21 17:24:00,
2013-04-21 13:29:00,42.8,23.9,30.51,SSW,203,0.9,4.3,47,0.00,,,0.00,WUHU216HW,2013-04-21 17:29:00,
2013-04-21 13:34:00,43.2,24.2,30.51,NE,45,1.6,7.4,47,0.00,,,0.00,WUHU216HW,2013-04-21 17:34:00,
2013-04-21 13:39:00,43.5,24.5,30.51,SE,135,1.8,7.4,47,0.00,,,0.00,WUHU216HW,2013-04-21 17:39:00,
2013-04-21 13:44:00,43.5,24.5,30.51,SSE,158,2.5,5.4,47,0.00,,,0.00,WUHU216HW,2013-04-21 17:44:00,
2013-04-21 13:49:00,43.7,24.7,30.51,SSW,203,0.4,2.5,47,0.00,,,0.00,WUHU216HW,2013-04-21 17:49:00,
2013-04-21 13:54:00,43.9,24.9,30.51,West,270,1.6,6.9,47,0.00,,,0.00,WUHU216HW,2013-04-21 17:54:00,
2013-04-21 13:59:00,43.9,24.3,30.51,NNW,338,4.0,6.9,46,0.00,,,0.00,WUHU216HW,2013-04-21 17:59:00,
2013-04-21 14:04:00,43.9,24.3,30.51,NW,315,4.0,5.4,46,0.00,,,0.00,WUHU216HW,2013-04-21 18:04:00,
2013-04-21 14:10:00,43.9,24.3,30.51,SW,225,2.5,5.4,46,0.00,,,0.00,WUHU216HW,2013-04-21 18:10:00,
2013-04-21 14:15:00,44.3,24.7,30.51,West,270,2.2,4.0,46,0.00,,,0.00,WUHU216HW,2013-04-21 18:15:00,
2013-04-21 14:20:00,44.4,24.8,30.51,WNW,293,2.7,4.7,46,0.00,,,0.00,WUHU216HW,2013-04-21 18:20:00,
2013-04-21 14:25:00,44.4,23.7,30.51,East,90,0.7,4.7,44,0.00,,,0.00,WUHU216HW,2013-04-21 18:25:00,
2013-04-21 14:30:00,44.4,24.3,30.50,SW,225,0.9,3.1,45,0.00,,,0.00,WUHU216HW,2013-04-21 18:30:00,
2013-04-21 14:35:00,44.4,24.3,30.50,SSW,203,1.3,2.2,45,0.00,,,0.00,WUHU216HW,2013-04-21 18:35:00,
2013-04-21 14:40:00,45.0,24.8,30.50,NW,315,1.8,2.9,45,0.00,,,0.00,WUHU216HW,2013-04-21 18:40:00,
2013-04-21 14:45:00,45.2,24.4,30.50,NW,315,2.9,4.3,44,0.00,,,0.00,WUHU216HW,2013-04-21 18:45:00,
2013-04-21 14:50:00,45.2,24.4,30.50,East,90,2.7,6.7,44,0.00,,,0.00,WUHU216HW,2013-04-21 18:50:00,
2013-04-21 14:55:00,45.0,24.2,30.50,WNW,293,2.5,6.7,44,0.00,,,0.00,WUHU216HW,2013-04-21 18:55:00,
2013-04-21 15:00:00,45.2,24.4,30.50,SSE,158,0.4,3.6,44,0.00,,,0.00,WUHU216HW,2013-04-21 19:00:00,
2013-04-21 15:05:00,45.3,24.5,30.50,NNW,338,2.5,3.6,44,0.00,,,0.00,WUHU216HW,2013-04-21 19:05:00,
2013-04-21 15:10:00,45.3,24.5,30.49,North,0,2.5,4.7,44,0.00,,,0.00,WUHU216HW,2013-04-21 19:10:00,
2013-04-21 15:15:00,45.5,24.7,30.49,NNW,338,5.4,5.6,44,0.00,,,0.00,WUHU216HW,2013-04-21 19:15:00,
2013-04-21 15:20:00,45.7,24.9,30.50,ENE,68,0.4,5.6,44,0.00,,,0.00,WUHU216HW,2013-04-21 19:20:00,
2013-04-21 15:26:00,45.7,24.9,30.49,WNW,293,3.8,5.1,44,0.00,,,0.00,WUHU216HW,2013-04-21 19:26:00,
2013-04-21 15:31:00,45.9,23.9,30.49,WSW,248,1.1,4.3,42,0.00,,,0.00,WUHU216HW,2013-04-21 19:31:00,
2013-04-21 15:36:00,45.9,23.9,30.49,WNW,293,2.2,4.5,42,0.00,,,0.00,WUHU216HW,2013-04-21 19:36:00,
2013-04-21 15:41:00,46.2,24.8,30.49,West,270,3.1,5.6,43,0.00,,,0.00,WUHU216HW,2013-04-21 19:41:00,
2013-04-21 15:46:00,46.8,24.7,30.49,West,270,1.8,5.6,42,0.00,,,0.00,WUHU216HW,2013-04-21 19:46:00,
2013-04-21 15:51:00,47.3,25.2,30.49,WSW,248,2.0,3.1,42,0.00,,,0.00,WUHU216HW,2013-04-21 19:51:00,
2013-04-21 15:56:00,47.7,25.6,30.49,NW,315,1.6,3.4,42,0.00,,,0.00,WUHU216HW,2013-04-21 19:56:00,
2013-04-21 16:01:00,48.0,25.8,30.48,NW,315,2.5,3.6,42,0.00,,,0.00,WUHU216HW,2013-04-21 20:01:00,
2013-04-21 16:06:00,47.7,25.0,30.49,NNW,338,1.3,4.0,41,0.00,,,0.00,WUHU216HW,2013-04-21 20:06:00,
2013-04-21 16:11:00,47.5,24.8,30.48,WNW,293,0.4,4.0,41,0.00,,,0.00,WUHU216HW,2013-04-21 20:11:00,
2013-04-21 16:16:00,47.7,25.6,30.48,WSW,248,2.7,3.4,42,0.00,,,0.00,WUHU216HW,2013-04-21 20:16:00,
2013-04-21 16:21:00,48.2,26.0,30.48,ESE,113,0.9,2.9,42,0.00,,,0.00,WUHU216HW,2013-04-21 20:21:00,
2013-04-21 16:26:00,48.8,26.6,30.48,WNW,293,1.1,3.1,42,0.00,,,0.00,WUHU216HW,2013-04-21 20:26:00,
2013-04-21 16:31:00,48.8,26.0,30.48,East,90,0.9,3.1,41,0.00,,,0.00,WUHU216HW,2013-04-21 20:31:00,
2013-04-21 16:36:00,48.8,26.0,30.49,NNW,338,2.5,3.4,41,0.00,,,0.00,WUHU216HW,2013-04-21 20:36:00,
2013-04-21 16:41:00,48.8,26.0,30.48,NW,315,0.9,3.4,41,0.00,,,0.00,WUHU216HW,2013-04-21 20:41:00,
2013-04-21 16:47:00,48.8,26.0,30.49,NW,315,0.7,3.6,41,0.00,,,0.00,WUHU216HW,2013-04-21 20:47:00,
2013-04-21 16:52:00,48.8,26.0,30.49,ENE,68,0.9,3.6,41,0.00,,,0.00,WUHU216HW,2013-04-21 20:52:00,
2013-04-21 16:57:00,49.3,27.0,30.49,SE,135,0.9,1.3,42,0.00,,,0.00,WUHU216HW,2013-04-21 20:57:00,
2013-04-21 17:02:00,49.8,27.5,30.49,West,270,0.9,4.0,42,0.00,,,0.00,WUHU216HW,2013-04-21 21:02:00,
2013-04-21 17:07:00,50.4,27.4,30.49,NNE,23,1.8,4.0,41,0.00,,,0.00,WUHU216HW,2013-04-21 21:07:00,
2013-04-21 17:12:00,50.6,27.6,30.49,ENE,68,0.7,4.7,41,0.00,,,0.00,WUHU216HW,2013-04-21 21:12:00,
2013-04-21 17:17:00,50.9,27.9,30.49,NW,315,3.6,4.7,41,0.00,,,0.00,WUHU216HW,2013-04-21 21:17:00,
2013-04-21 17:22:00,51.3,27.6,30.49,ENE,68,2.2,3.8,40,0.00,,,0.00,WUHU216HW,2013-04-21 21:22:00,
2013-04-21 17:27:00,51.6,27.9,30.49,East,90,2.0,3.8,40,0.00,,,0.00,WUHU216HW,2013-04-21 21:27:00,
2013-04-21 17:32:00,52.2,29.0,30.49,ESE,113,1.1,3.8,41,0.00,,,0.00,WUHU216HW,2013-04-21 21:32:00,
2013-04-21 17:37:00,52.4,28.6,30.49,West,270,1.1,3.8,40,0.00,,,0.00,WUHU216HW,2013-04-21 21:37:00,
2013-04-21 17:42:00,52.7,28.2,30.49,NNW,338,2.2,3.4,39,0.00,,,0.00,WUHU216HW,2013-04-21 21:42:00,
2013-04-21 17:47:00,52.4,27.3,30.49,NNW,338,1.8,3.4,38,0.00,,,0.00,WUHU216HW,2013-04-21 21:47:00,
2013-04-21 17:52:00,52.0,27.0,30.49,West,270,1.3,3.4,38,0.00,,,0.00,WUHU216HW,2013-04-21 21:52:00,
2013-04-21 17:57:00,52.0,27.0,30.49,North,0,1.1,2.9,38,0.00,,,0.00,WUHU216HW,2013-04-21 21:57:00,
2013-04-21 18:02:00,52.2,27.1,30.49,SE,135,0.4,1.8,38,0.00,,,0.00,WUHU216HW,2013-04-21 22:02:00,
2013-04-21 18:07:00,52.4,27.3,30.49,ENE,68,2.5,3.1,38,0.00,,,0.00,WUHU216HW,2013-04-21 22:07:00,
2013-04-21 18:12:00,52.5,28.1,30.49,NW,315,0.2,3.1,39,0.00,,,0.00,WUHU216HW,2013-04-21 22:12:00,
2013-04-21 18:18:00,52.4,27.3,30.49,WNW,293,0.7,2.9,38,0.00,,,0.00,WUHU216HW,2013-04-21 22:18:00,
2013-04-21 18:23:00,51.8,26.8,30.49,East,90,1.3,3.4,38,0.00,,,0.00,WUHU216HW,2013-04-21 22:23:00,
2013-04-21 18:28:00,51.6,26.6,30.50,ENE,68,1.6,3.4,38,0.00,,,0.00,WUHU216HW,2013-04-21 22:28:00,
2013-04-21 18:33:00,51.6,26.6,30.50,NNW,338,0.9,1.8,38,0.00,,,0.00,WUHU216HW,2013-04-21 22:33:00,
2013-04-21 18:38:00,51.5,25.9,30.50,ESE,113,1.3,1.8,37,0.00,,,0.00,WUHU216HW,2013-04-21 22:38:00,
2013-04-21 18:43:00,51.5,26.5,30.50,SSE,158,1.6,4.0,38,0.00,,,0.00,WUHU216HW,2013-04-21 22:43:00,
2013-04-21 18:48:00,51.5,26.5,30.50,West,270,0.9,4.0,38,0.00,,,0.00,WUHU216HW,2013-04-21 22:48:00,
2013-04-21 18:53:00,51.3,25.7,30.50,NE,45,0.7,2.5,37,0.00,,,0.00,WUHU216HW,2013-04-21 22:53:00,
2013-04-21 18:58:00,50.7,25.1,30.50,WNW,293,2.0,2.5,37,0.00,,,0.00,WUHU216HW,2013-04-21 22:58:00,
2013-04-21 19:03:00,50.0,24.5,30.50,ESE,113,0.9,3.4,37,0.00,,,0.00,WUHU216HW,2013-04-21 23:03:00,
2013-04-21 19:08:00,49.5,24.1,30.51,SSW,203,0.4,3.4,37,0.00,,,0.00,WUHU216HW,2013-04-21 23:08:00,
2013-04-21 19:14:00,49.5,24.1,30.51,ENE,68,1.8,1.8,37,0.00,,,0.00,WUHU216HW,2013-04-21 23:14:00,
2013-04-21 19:19:00,49.5,24.1,30.51,WNW,293,0.9,2.2,37,0.00,,,0.00,WUHU216HW,2013-04-21 23:19:00,
2013-04-21 19:24:00,49.1,23.7,30.51,WSW,248,0.0,2.2,37,0.00,,,0.00,WUHU216HW,2013-04-21 23:24:00,
2013-04-21 19:29:00,48.8,23.4,30.51,NNW,338,1.8,1.8,37,0.00,,,0.00,WUHU216HW,2013-04-21 23:29:00,
2013-04-21 19:34:00,48.4,23.1,30.51,ENE,68,0.7,2.5,37,0.00,,,0.00,WUHU216HW,2013-04-21 23:34:00,
2013-04-21 19:39:00,48.0,23.4,30.51,SE,135,0.7,2.5,38,0.00,,,0.00,WUHU216HW,2013-04-21 23:39:00,
2013-04-21 19:44:00,48.0,23.4,30.51,ESE,113,2.5,2.5,38,0.00,,,0.00,WUHU216HW,2013-04-21 23:44:00,
2013-04-21 19:49:00,47.7,23.1,30.52,NNE,23,0.4,2.5,38,0.00,,,0.00,WUHU216HW,2013-04-21 23:49:00,
2013-04-21 19:54:00,47.5,22.9,30.52,ESE,113,0.4,1.8,38,0.00,,,0.00,WUHU216HW,2013-04-21 23:54:00,
2013-04-21 20:00:00,47.3,22.8,30.52,SE,135,0.0,1.1,38,0.00,,,0.00,WUHU216HW,2013-04-22 00:00:00,
2013-04-21 20:05:00,47.0,22.5,30.52,SE,135,0.4,1.6,38,0.00,,,0.00,WUHU216HW,2013-04-22 00:05:00,
2013-04-21 20:10:00,46.6,22.1,30.52,SE,135,0.9,1.6,38,0.00,,,0.00,WUHU216HW,2013-04-22 00:10:00,
2013-04-21 20:15:00,46.4,21.9,30.52,ESE,113,0.4,1.1,38,0.00,,,0.00,WUHU216HW,2013-04-22 00:15:00,
2013-04-21 20:20:00,46.2,21.8,30.53,SE,135,0.4,1.8,38,0.00,,,0.00,WUHU216HW,2013-04-22 00:20:00,
2013-04-21 20:25:00,45.9,21.5,30.54,SE,135,0.4,1.8,38,0.00,,,0.00,WUHU216HW,2013-04-22 00:25:00,
2013-04-21 20:30:00,45.7,21.9,30.54,SE,135,0.4,1.8,39,0.00,,,0.00,WUHU216HW,2013-04-22 00:30:00,
2013-04-21 20:35:00,45.5,21.8,30.54,SE,135,1.8,1.8,39,0.00,,,0.00,WUHU216HW,2013-04-22 00:35:00,
2013-04-21 20:41:00,45.2,21.5,30.54,SE,135,0.7,1.8,39,0.00,,,0.00,WUHU216HW,2013-04-22 00:41:00,
2013-04-21 20:46:00,45.2,21.5,30.54,SSE,158,1.8,1.8,39,0.00,,,0.00,WUHU216HW,2013-04-22 00:46:00,
2013-04-21 20:51:00,44.8,21.1,30.54,SE,135,1.8,1.8,39,0.00,,,0.00,WUHU216HW,2013-04-22 00:51:00,
2013-04-21 20:56:00,44.6,21.0,30.55,SSE,158,1.1,1.8,39,0.00,,,0.00,WUHU216HW,2013-04-22 00:56:00,
2013-04-21 21:01:00,44.4,20.8,30.55,South,180,2.7,2.7,39,0.00,,,0.00,WUHU216HW,2013-04-22 01:01:00,
2013-04-21 21:06:00,44.3,20.7,30.55,SSE,158,1.1,2.7,39,0.00,,,0.00,WUHU216HW,2013-04-22 01:06:00,
2013-04-21 21:11:00,44.1,20.5,30.55,SE,135,0.9,2.7,39,0.00,,,0.00,WUHU216HW,2013-04-22 01:11:00,
2013-04-21 21:16:00,43.9,20.3,30.55,SE,135,0.0,1.3,39,0.00,,,0.00,WUHU216HW,2013-04-22 01:16:00,
2013-04-21 21:21:00,43.7,20.7,30.56,SE,135,0.0,0.9,40,0.00,,,0.00,WUHU216HW,2013-04-22 01:21:00,
2013-04-21 21:26:00,43.5,20.6,30.56,SE,135,0.2,0.7,40,0.00,,,0.00,WUHU216HW,2013-04-22 01:26:00,
2013-04-21 21:31:00,43.4,20.5,30.56,SE,135,0.0,0.7,40,0.00,,,0.00,WUHU216HW,2013-04-22 01:31:00,
2013-04-21 21:36:00,43.2,20.3,30.55,SE,135,0.0,0.7,40,0.00,,,0.00,WUHU216HW,2013-04-22 01:36:00,
2013-04-21 21:42:00,43.0,20.7,30.55,ESE,113,0.0,0.4,41,0.00,,,0.00,WUHU216HW,2013-04-22 01:42:00,
2013-04-21 21:47:00,43.0,20.7,30.55,East,90,0.4,0.4,41,0.00,,,0.00,WUHU216HW,2013-04-22 01:47:00,
2013-04-21 21:52:00,42.6,20.3,30.55,ESE,113,0.0,0.7,41,0.00,,,0.00,WUHU216HW,2013-04-22 01:52:00,
2013-04-21 21:57:00,42.6,20.9,30.55,ESE,113,0.0,0.7,42,0.00,,,0.00,WUHU216HW,2013-04-22 01:57:00,
2013-04-21 22:02:00,42.5,20.8,30.55,SE,135,0.0,0.4,42,0.00,,,0.00,WUHU216HW,2013-04-22 02:02:00,
2013-04-21 22:07:00,42.3,20.7,30.55,SE,135,0.0,0.2,42,0.00,,,0.00,WUHU216HW,2013-04-22 02:07:00,
2013-04-21 22:12:00,42.3,20.7,30.55,SE,135,0.7,0.7,42,0.00,,,0.00,WUHU216HW,2013-04-22 02:12:00,
2013-04-21 22:17:00,42.1,20.5,30.55,SE,135,0.0,0.9,42,0.00,,,0.00,WUHU216HW,2013-04-22 02:17:00,
2013-04-21 22:22:00,41.9,20.3,30.55,SSE,158,0.7,1.3,42,0.00,,,0.00,WUHU216HW,2013-04-22 02:22:00,
2013-04-21 22:27:00,41.9,20.9,30.56,ESE,113,0.2,1.3,43,0.00,,,0.00,WUHU216HW,2013-04-22 02:27:00,
2013-04-21 22:33:00,41.7,20.7,30.55,SE,135,0.9,0.9,43,0.00,,,0.00,WUHU216HW,2013-04-22 02:33:00,
2013-04-21 22:38:00,41.6,20.6,30.55,SE,135,0.0,1.1,43,0.00,,,0.00,WUHU216HW,2013-04-22 02:38:00,
2013-04-21 22:43:00,41.6,20.6,30.55,SE,135,0.4,1.1,43,0.00,,,0.00,WUHU216HW,2013-04-22 02:43:00,
2013-04-21 22:48:00,41.4,20.4,30.56,SE,135,0.0,0.9,43,0.00,,,0.00,WUHU216HW,2013-04-22 02:48:00,
2013-04-21 22:53:00,41.2,20.2,30.56,SE,135,0.0,0.9,43,0.00,,,0.00,WUHU216HW,2013-04-22 02:53:00,
2013-04-21 22:58:00,41.2,20.2,30.56,ESE,113,0.0,0.4,43,0.00,,,0.00,WUHU216HW,2013-04-22 02:58:00,
2013-04-21 23:03:00,41.0,20.6,30.56,ESE,113,0.0,0.4,44,0.00,,,0.00,WUHU216HW,2013-04-22 03:03:00,
2013-04-21 23:08:00,40.8,20.4,30.56,ESE,113,0.0,0.4,44,0.00,,,0.00,WUHU216HW,2013-04-22 03:08:00,
2013-04-21 23:14:00,40.7,20.3,30.56,ESE,113,0.0,0.0,44,0.00,,,0.00,WUHU216HW,2013-04-22 03:14:00,
2013-04-21 23:19:00,40.7,20.9,30.56,ESE,113,0.0,0.0,45,0.00,,,0.00,WUHU216HW,2013-04-22 03:19:00,
2013-04-21 23:24:00,40.5,20.7,30.56,ESE,113,0.0,0.0,45,0.00,,,0.00,WUHU216HW,2013-04-22 03:24:00,
2013-04-21 23:29:00,40.3,20.5,30.56,ESE,113,0.0,0.0,45,0.00,,,0.00,WUHU216HW,2013-04-22 03:29:00,
2013-04-21 23:34:00,40.1,20.9,30.56,ESE,113,0.0,0.0,46,0.00,,,0.00,WUHU216HW,2013-04-22 03:34:00,
2013-04-21 23:39:00,39.9,20.7,30.56,ESE,113,0.0,0.4,46,0.00,,,0.00,WUHU216HW,2013-04-22 03:39:00,
2013-04-21 23:44:00,39.9,20.7,30.56,ESE,113,0.0,0.4,46,0.00,,,0.00,WUHU216HW,2013-04-22 03:44:00,
2013-04-21 23:49:00,39.8,21.1,30.56,ESE,113,0.0,0.0,47,0.00,,,0.00,WUHU216HW,2013-04-22 03:49:00,
2013-04-21 23:55:00,39.8,21.1,30.56,ESE,113,0.0,0.0,47,0.00,,,0.00,WUHU216HW,2013-04-22 03:55:00,